Theta_e
295 296 297 297 298 298 298 298 299 298 299 299 300 302 303 305 306 308 311 311 316 318
293 293 295 294 295 297 298 299 299 298 298 299 300 301 304 307 307 309 310 311 313 317
293 293 295 295 295 296 297 297 296 297 298 298 300 302 305 305 306 306 310 311 312 314
292 293 294 294 295 295 296 297 297 298 297 298 299 301 302 302 304 305 309 312 313 314
292 293 292 293 294 295 295 296 296 297 297 297 300 300 302 302 304 306 308 310 311 312
291 291 291 293 294 295 296 296 297 297 298 299 300 302 303 303 304 306 309 311 313 314
291 291 292 294 295 296 297 296 297 298 298 299 301 302 303 304 305 306 311 313 315 318
292 293 294 295 296 296 296 296 296 296 297 299 302 303 305 306 308 309 311 317 318 317
293 294 295 295 295 295 294 295 295 295 296 297 302 305 307 308 309 315 314 311 311 312
295 295 295 295 294 294 293 294 295 296 297 298 301 305 308 312 313 311 309 307 306 306
295 295 295 295 295 294 295 294 295 297 300 300 301 306 310 311 308 307 306 305 304 303
295 294 295 294 294 295 294 295 297 303 305 306 305 310 309 307 304 302 302 303 302 299
295 295 294 295 294 295 295 296 303 302 303 306 305 308 306 302 299 296 296 297 298 301
295 295 295 295 296 295 296 301 301 301 302 302 302 302 303 303 298 297 295 295 294 295
Wind_Speed
8 5 6 8 9 8 7 7 7 6 6 8 13 13 12 10 10 9 9 12 10 6
7 8 10 10 7 7 8 8 8 6 7 10 13 13 14 9 10 10 10 10 11 8
10 9 10 9 8 9 9 7 7 9 9 11 12 13 10 9 12 12 10 8 11 11
12 12 11 9 10 8 9 12 13 12 10 11 13 8 11 13 14 14 13 11 9 10
14 12 11 12 12 10 12 12 11 9 13 12 9 13 13 14 13 13 13 12 11 13
14 12 13 14 13 12 13 11 8 13 11 15 15 14 14 14 16 15 14 13 13 11
15 14 14 14 13 12 10 13 14 12 15 15 14 17 17 17 16 14 13 13 14 11
15 15 10 11 11 14 15 16 16 16 15 14 12 14 15 15 15 13 14 13 11 14
16 14 17 14 15 15 17 17 16 17 16 18 10 19 26 18 18 9 12 14 15 15
18 17 15 15 15 16 17 18 19 19 17 17 14 18 21 2 8 12 18 21 20 17
15 15 15 15 14 16 15 17 18 19 20 16 11 17 13 24 16 13 18 21 23 23
15 15 14 14 14 14 15 16 15 13 9 11 12 20 31 24 19 18 22 20 21 25
14 13 13 14 13 12 15 13 6 14 17 27 20 30 32 27 16 23 20 20 24 36
12 12 12 13 10 10 12 7 11 14 16 20 21 26 31 33 20 18 19 17 16 17
Wind_Direction
287 277 275 280 282 278 275 270 262 256 257 284 292 282 278 270 278 271 270 270 271 254
282 282 287 278 268 272 277 282 279 271 271 290 285 275 274 270 272 269 266 264 268 257
287 278 284 283 271 277 278 266 265 273 271 279 274 271 272 281 276 272 262 256 264 272
292 288 284 273 283 267 272 284 283 279 267 277 278 260 279 270 264 259 259 250 259 267
295 289 286 289 283 269 279 279 271 267 282 282 272 281 268 268 266 263 256 250 241 239
293 292 286 287 277 276 280 292 291 289 285 283 276 274 275 273 260 257 250 246 240 235
298 295 289 288 291 298 310 303 297 293 290 282 285 284 271 266 259 253 252 238 236 204
295 302 306 310 307 303 301 300 298 290 284 273 253 261 258 258 242 238 243 231 183 161
308 307 309 308 308 308 303 300 296 289 283 282 260 263 268 265 251 216 134 110 102 114
309 304 308 311 312 307 304 303 298 292 283 267 265 258 263 100 115 119 119 110 106 100
313 308 312 312 308 308 307 304 299 293 279 251 230 222 233 101 90 84 99 102 105 106
318 315 315 314 310 313 309 309 308 319 343 72 109 145 108 104 96 89 84 87 95 96
311 311 314 307 317 316 306 307 344 30 47 77 87 96 101 98 105 92 88 84 87 99
312 312 307 312 309 302 300 336 58 55 58 74 83 87 91 93 88 96 93 92 93 96